Location: Unspecified
(50.7693°N, 0.0000°E)
Time: 18:32:24
(UTC+00:00)

Transit 2A - Pass Details

Date: 26 June 2019
Orbit: 594 x 965 km, 66.7° (Epoch: 16 July)

Event Time Altitude Azimuth Distance (km) Brightness Sun altitude
Rises 06:50:53 0° 322° (NW) 3,515 9.1 25.3°
Reaches altitude 10° 06:53:36 10° 328° (NNW) 2,520 8.5 25.8°
Maximum altitude 06:59:14 50° 43° (NE) 1,027 7.6 26.7°
Drops below altitude 10° 07:04:18 10° 119° (ESE) 2,263 9.5 27.5°
Sets 07:06:37 0° 125° (SE) 3,125 9.9 27.8°
